Location: Smolinsk�
(48.6752°N, 17.1302°E)
Time: 12:11:29
(UTC+00:00)

Daily predictions for brighter satellites

Satellite Brightness Start Highest point End
(mag) Time Altitude Azimuth Time Altitude Azimuth Time Altitude Azimuth
NOSS 0 Rocket 4.1 17:40:29 10° SSW 17:46:42 84° WNW 17:52:57 10° NNE
Meteor 1-15 Rocket 4.5 17:41:59 10° SSW 17:47:41 79° WNW 17:53:20 10° N
CZ-2C R/B 3.4 17:43:34 10° SE 17:48:17 42° ENE 17:52:51 10° N
Cosmos 1331 Rocket 4.0 17:43:26 10° NNW 17:48:38 77° ENE 17:53:47 10° SSE
STARLINK-1124 3.7 17:44:34 10° WNW 17:48:43 78° SSW 17:52:51 10° ESE
Cosmos 332 Rocket 4.3 17:44:42 10° NNW 17:49:35 68° WSW 17:54:27 10° S
STARLINK-1128 4.1 17:46:48 10° WNW 17:50:52 53° NNE 17:54:56 10° E
USA 81 4.0 17:46:12 10° N 17:51:30 73° E 17:56:45 10° SSE
Okean 1 Rocket 4.2 17:47:20 10° SSW 17:51:35 50° WNW 17:55:51 10° N
USA 186 2.6 17:48:57 10° SE 17:52:08 36° ENE 17:55:16 10° N
Cosmos 1544 Rocket 4.1 17:48:25 10° SSE 17:52:29 38° E 17:56:36 10° NNE
Cosmos 1745 Rocket 4.1 17:46:44 10° N 17:53:07 85° E 17:59:22 10° S
MOS 1 4.5 17:49:54 10° SE 17:55:22 54° ENE 18:00:52 10° N
SPOT 3 Rocket 4.4 17:51:01 10° SE 17:55:35 32° ENE 18:00:11 10° N
STARLINK-1113 4.1 17:51:46 10° WNW 17:55:52 55° NNE 17:59:56 10° E
Cosmos 2369 Rocket 3.3 17:51:29 10° NNW 17:56:22 28° NE 18:01:12 10° ESE
Cosmos 1470 3.8 17:53:13 10° SE 17:56:22 24° E 17:59:33 10° NE
STARLINK-1241 3.8 17:52:45 10° SW 17:56:41 50° SE 18:00:37 10° ENE
STARLINK-1122 3.8 17:52:56 10° WNW 17:56:59 70° SSW 18:01:02 10° SE
CZ-4 R/B 3.7 17:56:02 10° SSW 17:59:24 28° W 18:02:45 10° NW
COSMOS 2428 4.3 17:54:04 10° WSW 17:59:25 39° NW 18:04:47 10° NNE
STARLINK-1119 4.0 17:56:45 10° WNW 18:00:51 57° NNE 18:04:55 10° E
STARLINK-1239 3.7 17:57:34 10° SW 18:01:31 54° SSE 18:05:29 10° ENE
STARLINK-1126 3.8 17:57:51 10° WNW 18:01:54 65° SSW 18:05:56 10° SE
BREEZE-M DEB (TANK) 3.6 17:57:29 10° SW 18:03:40 30° SSE 18:06:13 11° E
Ariane Rocket 3.0 17:59:57 10° SSE 18:05:01 80° ENE 18:10:07 10° NNW
STARLINK-1114 3.9 18:01:47 10° WNW 18:05:54 59° NNE 18:09:44 11° E
STARLINK-1240 3.7 18:02:15 10° SW 18:06:13 57° SSE 18:10:13 10° ENE
STARLINK-1082 3.9 18:02:23 10° WNW 18:06:25 61° SSW 18:10:26 10° SE
SJ-6B 3.3 18:02:35 10° SE 18:06:29 45° ENE 18:10:27 10° N
SJ-11-01 4.3 18:02:36 10° SSE 18:07:18 88° WSW 18:12:04 10° NNW
Cosmos 1733 3.1 18:03:45 10° S 18:07:30 75° E 18:11:17 10° NNE
Cosmos 1726 4.1 18:08:32 11° E 18:09:11 12° E 18:10:33 10° ENE
Meteor 1-22 Rocket 4.0 18:04:36 10° S 18:09:52 75° E 18:15:10 10° NNE
Cosmos 1758 4.1 18:06:14 10° SSE 18:09:53 32° E 18:13:33 10° NNE
Cosmos 1674 4.0 18:06:28 10° NNW 18:10:04 43° W 18:13:37 10° SSW
ARGOS Delta rocket 4.1 18:05:06 10° SSE 18:10:14 85° ENE 18:15:39 10° N
Cosmos 1110 Rocket 4.5 18:05:14 10° NNW 18:10:27 66° WSW 18:15:36 10° S
STARLINK-1130 (DARKSAT) 3.9 18:06:45 10° WNW 18:10:52 61° NNE 18:14:30 13° E
STARLINK-1216 3.6 18:06:57 10° SW 18:10:57 61° SSE 18:14:58 10° ENE
IRS-1A Rocket 4.3 18:05:23 10° SSE 18:11:03 85° ENE 18:16:52 10° NNW
STARLINK-1100 4.0 18:07:15 10° WNW 18:11:16 58° SSW 18:15:10 11° SE
Aureole 2 Rocket 4.1 18:09:09 10° N 18:11:47 19° NE 18:13:43 13° E
ATLAS CENTAUR R/B 4.2 18:09:58 10° NW 18:12:03 13° NNW 18:14:04 10° N
NOSS 2-1 (E) 4.4 18:10:13 10° WSW 18:13:28 41° NW 18:17:12 10° NNE
Cosmos 2219 Rocket 4.2 18:08:33 10° WSW 18:13:32 30° NW 18:18:29 10° NNE
STARLINK-1237 3.6 18:11:41 10° SW 18:15:42 66° SSE 18:19:44 10° ENE
STARLINK-1084 3.8 18:11:43 10° WNW 18:15:51 63° NNE 18:19:17 14° E
STARLINK-1083 4.1 18:12:01 10° WNW 18:16:00 54° SW 18:19:44 11° SE
Cosmos 1943 Rocket 2.6 18:13:06 10° NNW 18:18:24 45° NE 18:23:02 13° ESE
STARLINK-1209 3.1 18:15:36 10° WSW 18:18:32 63° NNW 18:21:26 10° ENE
STARLINK-1202 3.5 18:16:24 10° SW 18:20:26 70° SSE 18:24:28 10° ENE
STARLINK-1125 4.2 18:16:36 10° WNW 18:20:34 50° SW 18:24:08 12° SE
ATLAS 2AS CENTAUR R/B 4.0 18:13:35 10° NW 18:20:37 34° NNE 18:26:55 11° E
STARLINK-1228 3.1 18:17:48 10° WSW 18:20:40 61° NNW 18:23:29 10° ENE
STARLINK-1098 3.8 18:16:43 10° WNW 18:20:51 66° NNE 18:24:04 16° E
SL-14 R/B 3.3 18:17:10 10° N 18:21:16 88° E 18:25:17 10° S
STARLINK-1109 4.3 18:21:21 10° WNW 18:25:17 47° SW 18:28:42 13° SE
SL-8 R/B 3.7 18:20:58 10° W 18:25:46 89° S 18:29:36 16° E
STARLINK-1123 3.7 18:21:41 10° WNW 18:25:50 69° NNE 18:28:51 18° ESE
ERBS 4.0 18:24:17 10° W 18:27:21 31° NNW 18:30:26 10° NE
STARLINK-1246 3.5 18:23:25 10° WSW 18:27:30 77° SSE 18:31:37 10° ENE
Cosmos 2315 Rocket 4.0 18:22:35 10° S 18:28:50 68° E 18:35:10 10° NNE
STARLINK-1091 4.4 18:26:12 10° WNW 18:30:05 44° SW 18:33:19 14° SSE
USA 234 3.5 18:24:12 10° ENE 18:30:30 47° SE 18:36:45 10° SSW
ADEOS Rocket 4.3 18:23:56 10° N 18:30:31 49° WNW 18:36:26 10° SW
STARLINK-1097 3.7 18:26:39 10° WNW 18:30:48 72° NNE 18:33:37 20° ESE
Resurs 1-3 4.0 18:28:09 13° SE 18:31:46 45° ENE 18:35:58 10° N
STARLINK-67 3.6 18:30:25 10° W 18:32:53 40° NNW 18:34:49 14° NE
STARLINK-1201 3.2 18:30:03 10° WSW 18:33:18 69° NNW 18:36:08 13° ENE
Cosmos 1626 2.4 18:30:03 10° NNW 18:33:45 68° W 18:37:25 10° S
STARLINK-1224 3.5 18:30:39 10° WSW 18:34:43 83° SSE 18:38:30 12° ENE
H-2A R/B 2.4 18:29:54 10° S 18:35:12 71° WSW 18:40:23 10° NNW
STARLINK-1099 3.6 18:31:39 10° WNW 18:35:48 75° NNE 18:38:25 22° ESE
STARLINK-1203 3.5 18:32:21 10° WSW 18:36:21 90° SE 18:39:58 12° ENE
Aureole 3 4.0 18:32:30 10° SSE 18:36:23 43° E 18:41:16 10° NNE
DMSP B5D2-2 4.5 18:33:12 10° NNE 18:38:06 40° E 18:42:58 10° SSE
SL-16 R/B 2.1 18:32:41 10° SSW 18:38:21 81° ESE 18:44:02 10° NNE
STARLINK-1225 3.5 18:35:16 10° WSW 18:39:21 88° SSE 18:42:58 13° ENE
SL-08 RB Rocket 3.6 18:35:17 10° SSE 18:39:48 83° ENE 18:44:24 10° NNW
STARLINK-1104 3.6 18:36:38 10° WNW 18:40:47 79° NNE 18:43:12 24° ESE
TSX-5 4.3 18:35:39 10° NNW 18:41:11 81° WSW 18:44:38 15° SSE
Resurs 01 Rocket 2.1 18:38:54 20° SE 18:41:32 40° ENE 18:45:40 10° N
STARLINK-1230 3.5 18:40:01 10° WSW 18:44:06 88° NNW 18:47:31 14° ENE
Meteor 2-15 4.3 18:39:36 10° S 18:45:39 79° E 18:51:44 10° NNE
STARLINK-1144 3.6 18:41:37 10° WNW 18:45:47 83° NNE 18:47:59 27° ESE
FREGAT/IRIS 4.0 18:43:27 10° SSW 18:45:58 34° W 18:48:31 10° NNW
Cosmos 2228 4.2 18:45:53 22° E 18:46:02 22° E 18:49:21 10° NE
STARLINK-1233 3.4 18:43:39 10° W 18:46:45 56° NNW 18:48:52 18° ENE
STARLINK-1212 3.4 18:44:08 10° W 18:47:12 56° NNW 18:49:17 19° NE
STARLINK-1105 3.5 18:44:34 10° W 18:47:39 55° NNW 18:49:44 19° NE
Cosmos 1302 Rocket 4.4 18:42:37 10° NNW 18:47:51 65° WSW 18:53:04 10° S
STARLINK-1206 3.5 18:45:04 10° W 18:48:08 55° NNW 18:50:08 19° NE
STARLINK-1247 3.5 18:45:30 10° W 18:48:34 55° NNW 18:50:34 19° NE
STARLINK-1243 3.6 18:44:50 10° WSW 18:48:55 84° NNW 18:52:10 16° ENE
STARLINK-1227 3.5 18:45:55 10° W 18:49:00 55° NNW 18:51:02 19° NE
STARLINK-1218 3.5 18:46:24 10° W 18:49:29 54° NNW 18:51:27 20° NE
Abrixas rocket 3.4 18:47:11 10° SSW 18:49:07 23° S 18:49:07 23° S
Cosmos 1992 Rocket 4.1 18:44:39 10° NNW 18:49:49 57° ENE 18:52:56 23° SE
STARLINK-1226 3.5 18:46:51 10° W 18:49:56 54° NNW 18:51:53 20° NE
STARLINK-1254 3.5 18:47:17 10° W 18:50:22 54° NNW 18:52:20 20° NE
Cosmos 1709 Rocket 4.4 18:44:24 10° NNW 18:50:34 66° W 18:56:38 10° S
STARLINK-1103 3.6 18:46:35 10° WNW 18:50:45 87° NNE 18:52:45 30° ESE
STARLINK-1215 3.5 18:47:46 10° W 18:50:50 53° NNW 18:52:45 20° NE
Cosmos 1953 2.5 18:47:34 13° SSE 18:50:53 47° E 18:54:44 10° NNE
STARLINK-1231 3.5 18:48:12 10° W 18:51:16 53° NNW 18:53:09 21° NE
STARLINK-1232 3.5 18:49:07 10° W 18:52:11 53° NNW 18:54:02 21° NE
STARLINK-1217 3.5 18:49:35 10° W 18:52:38 52° NNW 18:54:29 21° NE
STARLINK-1208 3.6 18:49:59 10° W 18:53:04 52° NNW 18:54:55 21° NE
STARLINK-1229 3.6 18:50:29 10° W 18:53:32 52° NNW 18:55:20 21° NE
STARLINK-1236 3.6 18:49:37 10° WSW 18:53:42 80° NNW 18:56:45 17° ENE
STARLINK-1271 3.6 18:50:55 10° W 18:53:59 52° NNW 18:55:46 22° NE
STARLINK-1270 3.6 18:51:24 10° W 18:54:27 51° NNW 18:56:13 22° NE
STARLINK-1154 3.6 18:51:51 10° W 18:54:53 51° NNW 18:56:38 22° NE
STARLINK-1101 3.5 18:51:34 10° WNW 18:55:44 88° SSW 18:57:32 33° ESE
STARLINK-1197 3.6 18:52:45 10° W 18:55:49 51° NNW 18:57:31 22° NE
STARLINK-1189 3.6 18:53:12 10° W 18:56:15 50° NNW 18:57:57 23° NE
SL-24 R/B 4.0 18:52:09 10° NNE 18:56:49 71° E 19:00:53 10° S
STARLINK-1187 3.7 18:54:05 10° W 18:57:08 48° NNW 18:58:50 22° NE
STARLINK-1188 3.6 18:54:07 10° W 18:57:10 50° NNW 18:58:49 23° NE
STARLINK-1198 3.6 18:54:07 10° W 18:57:11 50° NNW 18:58:49 23° NE
STARLINK-1235 3.8 18:54:49 10° W 18:57:51 45° NNW 18:59:33 22° NE
CZ-4C R/B 4.5 18:53:55 10° WNW 18:58:32 23° N 19:03:49 10° NE
STARLINK-1199 3.7 18:56:03 10° W 18:59:07 49° NNW 19:00:44 24° NE
STARLINK-1191 3.7 18:56:30 10° W 18:59:35 49° NNW 19:01:10 24° NE
STARLINK-1210 3.7 18:56:58 10° W 19:00:02 49° NNW 19:01:36 24° NE
Cosmos 1603 4.1 18:55:11 10° S 19:00:18 37° ESE 19:05:26 10° NE
STARLINK-1221 3.7 18:57:25 10° W 19:00:28 49° NNW 19:02:02 24° NE
STARLINK-1102 3.5 18:56:32 10° WNW 19:00:42 84° SSW 19:02:19 36° ESE
STARLINK-1219 3.7 18:57:53 10° W 19:00:56 49° NNW 19:02:29 25° NE
STARLINK-1222 3.7 18:58:19 10° W 19:01:24 48° NNW 19:02:54 25° NE
STARLINK-1211 3.7 18:58:47 10° W 19:01:51 48° NNW 19:03:19 25° NE
ISS -3.8 18:58:29 10° WNW 19:01:52 84° NNE 19:02:41 49° ESE
Meteor 1-16 Rocket 4.4 18:58:28 18° SSE 19:02:07 43° E 19:07:16 10° NNE
STARLINK-1214 3.7 18:59:14 10° W 19:02:17 48° NNW 19:03:46 25° NE
Cosmos 2251 Rocket 3.7 18:57:33 10° S 19:02:43 51° ESE 19:07:56 10° NNE
STARLINK-1245 3.7 18:59:42 10° W 19:02:45 47° NNW 19:04:10 26° NE
STARLINK-1238 3.7 19:00:06 10° W 19:03:09 48° NNW 19:04:36 26° NE
STARLINK-1269 3.7 18:59:29 10° WSW 19:03:33 73° NNW 19:06:12 21° ENE
Cosmos 2074 Rocket 4.0 18:57:17 10° N 19:03:34 68° E 19:08:16 19° SSE
STARLINK-1205 3.7 19:01:02 10° W 19:04:04 47° NNW 19:05:27 26° NE
BREEZE-M DEB (TANK) 3.5 18:57:34 10° WNW 19:04:16 89° N 19:05:19 42° ESE
STARLINK-1204 3.7 19:01:31 10° W 19:04:32 47° NNW 19:05:53 27° NE
Cosmos 2084 Rocket 3.5 19:00:33 10° NW 19:05:02 89° WSW 19:06:58 34° SE
SPOT 5 4.4 19:05:13 16° ENE 19:05:26 16° ENE 19:08:09 10° NNE
STARLINK-1111 3.6 19:01:32 10° WNW 19:05:41 79° SSW 19:07:06 40° SE
Cosmos 1703 3.8 19:04:23 10° N 19:08:06 38° ENE 19:08:26 38° E
Cosmos 2237 Rocket 4.2 19:03:26 10° WSW 19:08:21 30° NW 19:13:18 10° NNE
STARLINK-1200 3.8 19:04:18 10° WSW 19:08:22 69° NNW 19:10:50 23° ENE
CZ-2C R/B 2.5 19:03:17 10° NNE 19:08:26 60° E 19:13:32 10° S
ERS-1 Rocket 4.2 19:08:38 23° ENE 19:09:34 24° ENE 19:13:35 10° N
STARLINK-1073 3.6 19:06:31 10° WNW 19:10:39 75° SSW 19:11:53 44° SE
STARLINK-1192 3.8 19:09:04 10° WSW 19:13:08 67° NNW 19:15:24 25° ENE
STARLINK-1121 3.6 19:11:29 10° WNW 19:15:37 70° SSW 19:16:39 47° SE
ARGOS 4.4 19:10:43 10° SSW 19:15:46 40° W 19:20:50 10° NNW
Cosmos 292 Rocket 3.8 19:11:22 10° NNW 19:16:10 82° WSW 19:18:32 30° SSE
Cosmos 1602 Rocket 4.5 19:13:08 10° NNW 19:17:27 48° W 19:21:42 10° SSW
STARLINK-1244 3.9 19:14:00 10° W 19:18:04 64° NNW 19:20:08 27° NE
IRIDIUM 104 4.5 19:13:32 10° N 19:18:46 74° W 19:23:42 11° S
Cosmos 1656 Rocket 4.1 19:13:15 10° NNW 19:18:47 49° NE 19:20:40 35° ESE
STARLINK-1106 3.7 19:16:27 10° WNW 19:20:34 66° SSW 19:21:25 50° SSE
STARLINK-1138 4.0 19:18:37 10° W 19:22:40 62° NNW 19:24:34 29° NE
MOS 1 Rocket 3.5 19:17:34 10° NNE 19:22:48 83° ESE 19:28:13 10° SSW
STARLINK-1234 4.0 19:20:55 10° WNW 19:23:43 36° N 19:24:04 34° N
STARLINK-1112 3.8 19:21:28 10° WNW 19:25:34 61° SSW 19:26:14 52° SSE
STARLINK-1143 4.0 19:23:32 10° W 19:27:36 59° NNW 19:29:16 32° NE
COSMOS 2455 4.1 19:24:35 10° NNW 19:29:49 29° NE 19:32:01 24° ENE
STARLINK-1128 3.8 19:26:28 10° WNW 19:30:32 57° SSW 19:31:01 53° S
Cosmos 1437 3.1 19:28:52 10° NNW 19:31:24 56° NW 19:31:24 56° NW
Cosmos 1726 Rocket 3.6 19:33:41 56° E 19:33:41 56° E 19:37:55 10° NNE
STARLINK-1113 3.9 19:31:26 10° WNW 19:35:29 53° SW 19:35:47 52° SSW
STARLINK-1241 4.1 19:31:57 10° W 19:35:56 55° NNW 19:37:13 37° NE
Cosmos 2341 Rocket 4.4 19:30:19 10° N 19:36:25 45° ENE 19:37:48 40° ESE
Cosmos 1825 Rocket 3.6 19:32:10 10° NNW 19:36:36 76° W 19:37:53 45° S
NOSS 3-4 (A) 4.1 19:33:06 10° NW 19:39:50 56° NE 19:42:42 36° E
NOSS 3-4 (C) 4.1 19:33:12 10° NW 19:39:56 56° NE 19:42:48 36° E
STARLINK-1119 4.0 19:36:26 10° WNW 19:40:27 50° SW 19:40:34 49° SSW
Cosmos 2369 Rocket 2.5 19:35:13 10° NNW 19:40:52 64° WSW 19:43:14 35° S
STARLINK-1239 4.2 19:36:54 10° W 19:40:52 54° NNW 19:41:56 40° NE
Cosmos 2327 Rocket 4.4 19:35:18 10° N 19:41:37 89° E 19:44:39 34° S
Cosmos 1726 2.6 19:42:57 44° SW 19:43:52 60° WNW 19:47:36 10° N
Cosmos 1461 4.4 19:40:17 10° NNW 19:44:06 27° NE 19:44:33 26° NE
STARLINK-1114 4.2 19:41:28 10° WNW 19:45:24 46° SW 19:45:24 46° SW
STARLINK-1240 4.2 19:41:39 10° W 19:45:37 52° NNW 19:46:29 43° NNE
Aureole 2 Rocket 3.6 19:42:27 10° NW 19:45:43 37° WSW 19:45:56 36° WSW
Cosmos 1758 Rocket 4.2 19:42:04 10° NNW 19:46:19 51° W 19:47:54 33° SSW
Cosmos 2263 4.2 19:41:19 10° NNW 19:46:57 77° WSW 19:48:36 47° S
Cosmos 1908 4.0 19:48:57 44° NNE 19:48:57 44° NNE 19:51:43 10° NNE
SAR-Lupe-2 4.1 19:44:38 10° NNE 19:47:27 53° N 19:47:27 53° N
NOSS 3-3 (A) 3.8 19:44:01 10° SSW 19:49:52 75° SE 19:56:32 10° NE
NOSS 3-3 (C) 3.8 19:44:08 10° SSW 19:49:59 74° SE 19:56:38 10° NE
STARLINK-1216 4.3 19:46:25 10° W 19:50:23 51° NNW 19:51:03 45° NNE
STARLINK-1130 (DARKSAT) 4.4 19:46:27 10° WNW 19:50:10 42° SW 19:50:10 42° SW
Meteor 2-17 Rocket 4.4 19:45:22 10° N 19:51:33 90° W 19:53:45 43° S
Cosmos 1953 Rocket 3.6 19:48:26 10° NNW 19:52:54 76° W 19:53:22 67° SSW
Terra 2.9 19:53:53 32° NE 19:53:53 32° NE 19:57:36 10° N
Cosmos 1295 Rocket 4.4 19:47:55 10° N 19:54:12 78° E 19:55:56 50° SSE
STARLINK-1237 4.3 19:51:13 10° W 19:55:11 50° N 19:55:38 47° NNE
Spot 2 Rocket 3.5 19:55:41 55° S 19:56:49 78° WSW 20:01:58 10° NNW
STARLINK-1202 4.3 19:55:59 10° W 19:59:56 49° N 20:00:11 48° N
Cosmos 1606 Rocket 3.9 19:59:07 49° SW 20:00:05 64° WNW 20:04:32 10° N
SPOT 1/Viking Rocket 3.4 20:00:50 72° ESE 20:01:17 78° ENE 20:06:31 10° NNW
Cosmos 1943 Rocket 3.4 19:57:05 10° NW 20:02:02 34° WSW 20:04:34 23° SSW
Cosmos 2218 Rocket 4.4 19:57:43 10° N 20:03:37 44° ENE 20:03:48 44° ENE
Cosmos 1943 3.1 20:01:04 22° SSW 20:04:51 88° ESE 20:10:35 10° NNE
SL-24 R/B 4.5 20:00:14 10° N 20:05:24 83° E 20:06:00 70° SSE
STARLINK-1246 4.4 20:03:13 10° W 20:07:12 47° N 20:07:12 47° N
SL-8 R/B 4.1 20:03:32 10° W 20:07:34 52° SW 20:07:34 52° SW
ATLAS 2AS CENTAUR R/B 2.8 20:04:59 10° NW 20:12:44 81° NE 20:14:21 58° SE
Cosmos 1340 Rocket 4.4 20:15:29 28° NNE 20:15:29 28° NNE 20:17:30 10° NNE
USA 234 3.4 20:07:13 10° NE 20:13:44 71° NNW 20:20:14 10° WSW
Cosmos 2181 Rocket 4.2 20:15:29 53° ENE 20:15:29 53° ENE 20:21:08 10° NNE
USA 245 4.4 20:15:17 52° SW 20:16:08 60° W 20:21:56 10° NNW
APEX 4.3 20:09:21 10° NNW 20:16:21 76° ENE 20:17:01 69° ESE
Cosmos 2154 Rocket 4.4 20:10:16 10° NNW 20:16:31 60° W 20:18:59 36° SSW
Resurs 01 Rocket 3.6 20:16:28 19° SW 20:18:10 24° W 20:21:46 10° NW
Cosmos 921 Rocket 4.1 20:18:37 10° NNW 20:21:21 38° N 20:21:21 38° N
SL-16 R/B 4.5 20:18:40 10° W 20:23:09 23° NW 20:27:39 10° N
Cosmos 2228 4.2 20:22:40 36° W 20:23:20 39° WNW 20:27:25 10° N
Cosmos 407 Rocket 4.4 20:26:39 37° NE 20:26:39 37° NE 20:29:44 10° NNE
Iridium 4 Rocket 4.4 20:26:19 10° N 20:28:55 33° NNE 20:28:55 33° NNE
SL-8 Rocket 3.8 20:30:31 10° N 20:36:52 87° E 20:37:01 85° SE
Cosmos 2058 Rocket 4.2 20:42:37 43° NW 20:42:37 43° NW 20:46:20 10° N
Mayak 1.5 20:38:43 10° NNE 20:38:57 11° NNE 20:38:57 11° NNE
SPOT 5 3.7 20:44:25 42° NW 20:44:25 42° NW 20:47:27 10° NNW
Cosmos 864 Rocket 4.4 20:36:57 10° N 20:42:54 74° NE 20:42:54 74° NE
Cosmos 614 Rocket 4.5 20:44:49 57° N 20:44:49 57° N 20:49:08 10° NNE
Cosmos 2366 rocket 3.9 20:38:29 10° N 20:44:18 77° NE 20:44:18 77° NE
ERS-1 Rocket 3.6 20:48:38 51° WNW 20:48:38 51° WNW 20:52:59 10° NNW
CZ-4C R/B 4.3 20:43:51 10° NW 20:49:18 27° NNE 20:53:35 16° ENE
Cosmos 1980 Rocket 4.3 20:49:21 10° N 20:52:43 16° NE 20:53:42 15° NE
COSMOS 2455 3.3 21:10:19 10° NW 21:15:09 58° NW 21:15:09 58° NW
Cosmos 1821 Rocket 4.5 21:22:27 10° N 21:27:28 56° NNE 21:27:28 56° NNE
NOSS 3-4 (A) 4.5 21:24:08 10° NW 21:30:09 45° WSW 21:30:09 45° WSW
NOSS 3-4 (C) 4.5 21:24:14 10° NW 21:30:14 45° WSW 21:30:14 45° WSW
Terra 3.7 21:32:46 26° WNW 21:32:46 26° WNW 21:35:24 10° NNW
ATLAS CENTAUR R/B 4.3 21:30:55 10° NNW 21:31:52 13° N 21:31:52 13° N
USA 234 4.2 21:50:09 10° ENE 21:56:16 44° N 22:02:24 10° WNW
ATLAS 2AS CENTAUR R/B 4.2 21:56:54 10° NW 22:01:48 26° W 22:01:48 26° W
Cosmos 1697 Rocket 4.0 22:06:50 10° NNW 22:10:12 36° NNW 22:10:12 36° NNW
SL-16 R/B 4.3 22:10:54 10° N 22:14:58 19° NE 22:15:22 19° NE
Mayak 1.7 22:14:35 10° N 22:15:32 15° NNW 22:15:32 15° NNW
Cosmos 2322 Rocket 4.2 22:25:10 10° N 22:29:19 20° NE 22:29:38 20° NE
Cosmos 1980 Rocket 3.7 22:32:22 10° NNW 22:35:28 33° N 22:35:28 33° N
CZ-4C R/B 3.3 22:32:24 10° NW 22:38:44 57° NNE 22:38:44 57° NNE
Cosmos 2082 Rocket 4.0 23:00:52 26° NE 23:00:52 26° NE 23:03:16 10° NNE
ATLAS 5 CENTAUR R/B 4.1 23:20:05 21° N 23:20:05 21° N 23:22:54 10° NNE
Cosmos 1833 Rocket 4.1 23:28:31 34° N 23:28:31 34° N 23:31:50 10° NNE
CZ-2D R/B 4.2 23:30:12 10° NE 23:32:53 20° ENE 23:32:53 20° ENE
Resurs 1-4 Rocket 4.2 23:31:42 10° NE 23:34:06 20° ENE 23:34:06 20° ENE
USA 234 4.0 23:32:23 10° E 23:38:37 49° NNE 23:44:50 10° WNW
SL-16 R/B 3.2 23:52:44 51° NE 23:52:44 51° NE 23:58:03 10° N
